Вернуться в каталог

FENGYUN 1C DEB

АктивенSSO
NORAD 31512·DEBRIS·🇨🇳 China

Запущен May 10, 1999 с Taiyuan Satellite Launch Center

Loading…

Ближайшие Пролёты (ближайшие 24 часа)

TLE

УстаревающийSource: Space-Track

Эпоха: Sep 10, 2026, 00:22 UTC

1 31512U 99025BXB 26253.01529442  .00001243  00000-0  32892-3 0  9999
2 31512  98.7833 162.7425 0143236  56.1138 317.1072 14.44774803694183

Отслеживайте FENGYUN 1C DEB в реальном времени с AllMySat

Download on the App Store